User: anonymous   Login
Location: Unspecified
(0.0000°N, 0.0000°E)
Time: 09:29:56
(UTC+00:00)
Language:

KAITUO 1B - Orbit

View from above orbital plane
View from above orbital plane
View from above satellite
View from above satellite

Ground track
Ground track

The orbit data is extracted from the following two-line orbital elements,

1 40912U 15049P   17327.82620635  .00002136  00000-0  10745-3 0  9999
2 40912  97.4506 333.1456 0015859  13.6706 109.9563 15.18211077120509
Epoch (UTC): 23 November 2017 19:49:44
Eccentricity: 0.0015859
inclination: 97.4506°
perigee height: 500 km
apogee height: 522 km
right ascension of ascending node: 333.1456°
argument of perigee: 13.6706°
revolutions per day: 15.18211077
mean anomaly at epoch: 109.9563°
orbit number at epoch: 12050

The dashed part of the orbit path shows where the satellite is in the earth's shadow,  

DLR